User: anonymous
Location: The C. Gantt Observatory
(33.6981°N, 81.6836°W)
Time: 14:15:20
(UTC-04:00)
Language:

Iridium 30 - Orbit

View from above orbital plane
View from above orbital plane
View from above satellite
View from above satellite

Ground track
Ground track

The orbit data is extracted from the following two-line orbital elements,

1 24949U 97051F   14242.38449650  .00000267  00000-0  88105-4 0   107
2 24949 086.4008 354.2988 0002386 113.0306 247.1141 14.34219579887949
Epoch (UTC): 30 August 2014 09:13:40
Eccentricity: 0.0002386
inclination: 86.4008°
perigee height: 776 km
apogee height: 779 km
right ascension of ascending node: 354.2988°
argument of perigee: 113.0306°
revolutions per day: 14.34219579
mean anomaly at epoch: 247.1141°
orbit number at epoch: 88794

The dashed part of the orbit path shows where the satellite is in the earth's shadow,  

DLR